Tracking 23757 objects as of 26-Oct-2021
HD Live streaming from Space Station
objects crossing your sky now

COSMOS 1581

Track COSMOS 1581 now!
COSMOS 1581 is classified as:


NORAD ID: 15095
Int'l Code: 1984-071A
Perigee: 2,393.5 km
Apogee: 38,129.9 km
Inclination: 66.0 °
Period: 720.9 minutes
Semi major axis: 26632 km
RCS: 9.1322 m2 (large)
Launch date: July 3, 1984
Source: Commonwealth of Independent States (former USSR) (CIS)
Launch site: PLESETSK MISSILE AND SPACE COMPLEX (PKMTR)
aabbcc
Your satellite tracking list
Your tracking list is empty




NASA's NSSDC Master Catalog

Two Line Element Set (TLE):
1 15095U 84071A   21297.44122512 -.00000354  00000-0  00000-0 0  9995
2 15095  65.9821 176.7327 6709122  33.3747 355.0869  1.99746841246580
Source of the keplerian elements: AFSPC